Temperature
17 16 16 16 15 15 15 14 14 14 14 13 13 13 13 13 13 13 13 13 13 13 13 13 13 13 13 13 13 13 13 14 14 14 14 14 14 14 14 14 14 14 14
17 16 16 16 15 15 15 14 14 14 14 14 13 13 13 13 13 13 13 13 13 13 13 13 13 13 13 13 13 13 13 13 14 14 14 13 13 13 14 14 14 14 14
17 17 16 16 15 15 15 15 14 14 14 14 13 13 13 13 13 13 13 13 13 13 13 13 13 13 13 13 13 13 13 13 13 13 13 13 13 13 13 13 14 14 14
17 17 16 16 16 15 15 15 14 14 14 14 14 13 13 13 13 13 13 13 13 13 13 13 13 13 13 13 13 13 13 13 13 13 13 13 13 13 13 13 13 13 13
17 17 17 16 16 16 15 15 15 14 14 14 14 14 13 13 13 13 13 13 13 13 13 13 13 13 13 13 13 13 13 13 13 13 13 13 13 13 13 13 13 13 13
17 17 17 16 16 16 15 15 15 14 14 14 14 14 13 13 14 14 13 13 13 13 13 13 13 13 13 13 13 13 13 13 13 13 13 13 13 13 13 13 13 13 13
17 17 17 16 16 16 16 15 15 14 14 14 14 14 14 14 14 14 13 13 13 13 13 13 13 13 13 13 13 13 13 13 13 13 13 13 13 13 12 13 12 12 13
17 16 16 16 16 16 16 15 15 14 14 14 14 14 14 14 14 14 13 13 13 13 13 13 13 13 13 13 12 12 12 12 12 12 12 12 12 12 12 12 12 12 12
16 16 16 16 16 16 16 15 15 14 14 14 14 14 14 14 14 14 13 13 13 13 13 13 13 13 13 13 12 12 12 12 12 12 12 12 12 12 12 12 12 12 12
16 16 16 16 16 16 16 15 15 15 14 14 14 14 14 14 14 14 13 13 13 13 13 13 13 13 13 13 12 12 12 12 12 12 12 12 12 12 12 12 12 12 12
15 15 15 15 15 15 15 15 15 14 14 14 14 14 14 14 14 14 14 13 13 13 13 13 13 13 13 13 12 12 12 12 11 11 11 11 11 11 12 12 12 11 11
15 15 15 15 15 15 15 15 15 14 14 14 14 14 14 14 14 14 14 13 13 13 13 12 13 13 13 13 12 12 12 12 11 11 11 11 11 11 11 11 11 11 11
14 14 15 14 14 14 14 15 14 14 14 13 13 13 13 13 13 14 13 13 13 13 13 13 12 12 12 12 12 12 12 11 11 11 11 11 11 11 11 11 11 11 11
14 14 14 14 14 14 14 14 14 14 14 13 13 13 13 13 13 13 13 13 13 13 13 12 12 12 12 12 12 12 11 11 11 11 11 11 11 11 11 10 10 10 10
13 13 13 13 13 13 13 13 13 13 13 13 13 13 13 13 13 13 13 12 12 12 12 12 11 11 11 11 11 11 11 11 10 10 10 10 10 10 10 10 10 10 9
12 12 12 12 12 12 12 13 13 13 13 13 13 13 13 13 13 13 13 12 12 12 11 11 11 11 11 11 11 11 11 10 10 10 10 10 10 10 10 10 9 9 9
11 11 11 11 11 12 12 12 12 12 13 13 13 13 12 12 13 12 12 12 12 11 11 11 11 11 11 11 11 11 10 10 10 10 10 9 9 9 9 9 9 9 8
11 11 10 10 11 11 11 11 11 11 12 12 12 12 12 12 12 12 12 11 11 11 11 10 10 10 11 11 11 10 10 10 10 10 9 9 9 9 9 9 8 8 8
10 10 10 10 10 10 10 10 10 11 11 11 11 11 11 11 11 11 11 10 10 10 10 10 10 10 10 10 10 10 10 10 10 9 9 9 9 9 8 8 8 8 8
9 9 9 9 9 9 9 9 10 10 10 10 10 10 10 10 10 10 10 10 10 10 10 10 10 10 10 10 10 10 10 9 9 9 9 9 8 8 8 8 8 7 7
9 9 9 9 9 9 9 9 9 9 9 9 10 10 10 10 9 10 10 10 9 9 9 9 9 9 9 9 9 9 9 9 9 8 8 8 8 8 8 7 7 7 7
8 8 8 8 8 8 8 8 8 8 8 9 9 9 9 9 8 9 9 9 9 9 9 9 9 9 9 9 9 9 9 8 8 8 8 8 8 8 7 7 7 6 6
7 7 8 8 7 7 7 7 7 7 8 8 8 8 8 8 8 8 8 8 8 8 8 8 8 8 8 8 8 8 8 8 8 8 8 7 7 7 7 6 6 6 6
7 7 7 7 7 7 7 7 7 7 7 7 7 7 8 8 8 8 8 8 8 8 8 8 8 8 8 8 8 8 8 8 8 7 7 7 7 7 7 6 6 5 5
6 6 6 6 6 6 6 6 6 6 6 6 7 7 7 7 8 7 7 8 8 7 7 7 7 8 8 8 8 7 7 7 7 7 7 7 6 6 6 6 6 5 5
6 6 6 6 6 6 6 6 6 6 6 6 6 6 7 7 7 7 7 7 7 7 7 7 7 7 7 7 7 7 7 7 7 6 6 6 6 6 5 5 5 5 4
Wind_Speed
7 7 6 6 5 5 5 5 5 4 4 3 3 3 3 3 2 2 2 2 2 2 2 2 2 2 2 2 3 3 3 3 3 2 1 1 2 2 2 2 3 4 5
7 7 6 6 5 6 6 5 5 5 4 4 3 3 3 2 2 2 2 2 2 2 2 2 2 2 3 3 3 3 3 3 3 3 2 1 2 2 2 2 2 2 3
6 6 6 6 6 6 6 5 5 5 5 5 4 4 3 3 3 3 3 3 3 3 3 3 2 2 3 3 3 3 3 2 3 3 2 1 1 2 2 2 2 1 2
6 6 7 7 6 6 6 6 6 6 6 5 5 4 4 4 4 3 3 3 3 2 2 2 2 3 3 3 3 4 3 3 3 3 3 2 2 1 2 2 2 2 2
6 6 7 7 6 7 7 7 6 6 6 6 6 5 4 4 4 4 4 4 3 2 2 2 2 1 3 3 3 3 3 4 3 3 3 2 2 2 2 2 2 2 2
5 6 5 6 6 7 7 7 7 6 7 6 6 6 5 4 1 3 6 4 4 3 3 2 2 2 2 3 2 2 3 4 4 3 3 3 2 2 2 2 2 2 2
5 4 5 5 6 7 7 8 8 8 7 7 7 7 7 5 3 4 6 6 5 4 4 3 2 2 3 3 5 6 3 3 4 4 3 3 2 2 2 3 2 2 1
4 4 4 5 6 6 7 8 8 8 8 8 8 8 7 6 6 6 7 7 6 5 5 4 4 3 2 3 3 3 3 3 3 4 3 2 1 1 2 2 2 2 2
4 5 5 5 5 6 7 8 8 8 8 8 8 8 8 8 7 8 8 6 6 6 5 5 5 4 2 2 4 4 3 3 2 1 2 2 4 3 1 3 3 4 3
5 6 5 6 6 7 7 7 7 8 9 9 9 9 9 9 7 9 10 7 7 6 5 5 3 4 2 4 6 5 5 4 4 4 4 4 3 3 3 4 3 4 3
6 6 6 6 7 7 7 7 7 8 8 9 9 9 9 9 8 10 10 8 7 7 5 5 4 6 4 5 6 5 3 3 4 4 3 3 3 3 3 3 2 3 3
6 6 6 6 6 6 7 6 7 8 9 9 9 9 8 8 8 9 11 11 9 8 6 6 4 7 6 6 6 3 3 4 4 4 4 4 3 3 3 2 2 2 1
7 7 7 7 7 7 7 7 7 7 8 8 8 8 8 7 7 9 10 11 10 8 6 4 4 6 7 7 6 6 6 6 5 5 5 4 3 3 3 3 3 3 3
8 7 7 7 7 7 7 7 7 7 8 8 8 8 8 7 7 7 7 8 9 9 7 6 7 7 7 5 6 7 6 5 5 5 5 4 3 3 4 4 4 4 3
9 8 7 7 7 7 7 7 9 9 9 9 9 9 9 9 8 7 7 8 8 8 8 7 7 8 8 7 7 6 6 6 6 6 5 5 5 4 4 4 4 4 4
9 8 7 7 7 7 8 8 8 10 10 11 11 11 10 8 6 9 10 9 9 9 9 9 9 9 9 9 8 8 7 7 7 6 6 6 6 5 5 4 4 4 4
10 9 8 8 8 8 8 9 9 8 10 12 13 13 13 9 9 10 10 9 10 11 10 11 10 10 10 9 9 9 8 8 7 7 7 6 6 6 6 5 5 5 4
11 10 9 8 9 9 9 10 10 10 9 9 10 13 13 12 11 11 10 8 8 10 11 11 10 10 10 10 9 9 8 8 8 8 7 7 7 7 6 6 6 6 5
11 9 9 9 10 10 10 10 10 11 11 10 8 8 10 10 11 11 12 10 10 11 11 10 10 9 9 9 9 9 9 8 9 8 8 8 7 7 7 7 6 6 6
10 11 11 10 11 11 10 10 10 11 11 10 10 8 7 7 8 9 10 11 11 11 11 10 10 9 9 9 8 8 9 9 9 9 8 8 7 7 7 7 7 6 6
10 11 11 11 11 11 11 11 11 11 11 11 10 9 9 9 10 11 11 11 11 11 10 10 9 9 10 9 9 10 11 9 9 9 8 8 8 7 7 7 7 7 6
11 11 11 11 11 11 11 11 11 11 12 12 11 9 10 11 11 11 11 11 11 10 10 9 9 9 9 10 10 10 10 10 10 9 9 8 8 8 7 7 7 6 6
12 12 12 12 11 11 12 12 12 12 12 12 11 10 10 11 11 11 11 11 10 10 9 9 9 9 9 9 10 10 11 11 10 9 9 9 8 8 7 8 8 8 8
13 14 14 13 12 12 12 12 12 12 12 12 11 11 11 11 11 12 11 10 10 10 10 10 10 12 13 10 10 11 11 10 11 10 11 9 9 9 8 8 8 9 8
13 13 13 13 13 12 12 12 12 12 12 12 11 11 11 11 11 10 10 10 10 10 11 11 10 11 14 14 12 11 11 12 11 10 10 9 10 9 9 9 8 8 8
13 14 13 13 13 12 12 12 13 13 12 11 11 11 10 10 10 10 9 9 9 10 10 10 12 13 13 13 14 13 14 15 14 12 10 9 10 9 9 8 10 9 9
Wind_Direction
213 217 221 226 228 233 243 249 256 264 269 274 286 303 316 318 316 298 293 296 288 281 256 250 250 258 244 231 235 241 243 241 236 227 195 178 195 204 172 175 161 175 168
215 219 224 227 225 232 239 245 249 255 260 264 274 287 295 297 300 302 299 289 283 285 278 262 250 230 241 246 243 239 235 236 232 225 203 186 208 204 190 182 169 169 176
212 218 223 226 227 231 238 241 246 248 250 249 255 266 275 279 281 278 280 279 274 279 284 281 274 252 238 238 241 240 233 227 226 227 217 187 214 198 191 187 166 148 163
215 219 225 229 229 233 236 237 242 244 247 249 253 258 265 269 274 273 270 272 272 278 283 282 280 271 259 249 237 234 224 220 221 223 219 209 211 216 207 194 175 162 154
218 224 229 232 230 235 238 238 238 242 248 248 251 255 261 266 275 281 272 268 271 269 266 272 279 311 348 308 275 244 220 218 218 220 216 217 215 206 207 209 193 177 152
225 233 236 240 234 234 237 240 237 237 242 245 246 250 252 254 252 273 278 267 261 254 255 256 239 204 209 218 272 301 285 235 222 222 225 223 226 210 194 197 198 201 183
231 234 238 243 239 238 238 236 235 234 237 242 244 246 248 241 204 228 250 264 260 256 255 250 245 230 225 219 193 196 213 257 274 257 234 234 227 210 202 207 202 213 193
245 245 245 251 248 245 242 238 237 239 236 239 244 246 247 240 206 223 235 246 251 249 248 249 244 235 229 247 219 202 198 197 218 232 238 251 250 201 205 223 209 188 164
262 261 257 251 250 247 242 241 239 239 238 237 240 242 244 237 207 214 228 241 242 244 243 244 248 238 162 251 230 213 207 198 145 119 26 47 59 54 295 202 204 205 203
280 271 265 256 250 247 246 246 244 241 240 240 240 241 244 247 207 206 225 236 238 237 234 230 222 245 191 217 228 222 223 219 209 188 189 192 193 169 210 227 222 223 216
299 283 272 261 255 253 250 247 244 241 242 243 244 243 244 245 217 205 217 232 237 237 233 228 214 184 205 212 239 236 232 243 220 212 203 193 191 190 190 205 222 235 231
304 291 279 269 263 255 249 247 245 240 240 243 245 246 243 237 232 214 212 227 247 236 234 231 209 171 190 205 217 207 208 227 222 211 207 203 198 192 189 182 173 167 150
300 291 285 278 266 258 251 247 245 240 241 245 244 245 242 236 223 210 213 218 228 233 232 217 193 176 190 199 200 206 211 216 215 213 211 209 208 203 188 174 166 154 140
299 295 290 284 275 263 255 252 248 245 242 244 244 246 245 237 231 221 218 215 210 219 222 199 191 196 210 215 203 205 215 217 217 215 214 207 196 194 195 191 186 182 178
301 298 296 289 283 274 262 257 254 251 249 246 246 246 244 242 231 218 225 224 219 215 210 213 214 210 211 213 212 208 207 207 209 213 210 205 199 197 200 199 201 204 206
303 303 298 293 286 279 274 268 257 258 258 249 252 254 249 249 229 213 222 228 217 199 207 217 218 216 214 212 211 208 206 206 207 208 210 209 206 203 199 194 198 206 207
299 298 296 293 289 282 276 274 276 267 250 246 243 242 246 243 227 218 213 211 205 196 215 222 222 220 216 212 211 210 208 205 204 206 207 208 207 204 201 200 200 203 207
297 293 290 288 286 282 279 277 274 273 273 265 246 235 233 230 224 215 200 196 213 212 224 224 222 221 217 213 211 210 207 203 204 205 205 204 206 205 204 204 203 205 204
295 293 291 290 285 281 279 277 274 271 270 268 263 243 225 225 220 211 197 219 223 221 221 222 220 218 214 212 210 208 206 204 203 202 204 203 204 206 206 207 203 193 205
291 288 287 287 285 281 279 277 276 273 269 266 261 255 233 225 230 221 219 228 229 227 223 220 215 215 213 210 206 204 204 204 203 204 203 203 204 207 206 205 202 199 202
292 291 283 282 282 281 279 278 277 274 270 266 262 253 235 233 233 230 226 227 227 227 224 221 215 211 210 207 204 204 204 204 202 202 201 200 201 203 205 202 200 199 197
288 288 288 285 283 281 280 278 276 273 270 268 266 255 231 235 238 234 230 229 227 225 222 219 216 212 208 205 203 203 204 204 201 198 198 195 195 196 197 196 196 195 192
286 287 287 284 282 280 277 276 275 273 270 266 264 258 246 242 239 237 234 230 224 222 218 216 215 212 208 207 206 204 204 203 199 195 196 193 191 191 192 192 192 194 195
285 285 285 284 282 280 278 276 275 274 273 270 265 258 251 245 241 238 235 231 225 219 215 213 213 212 207 204 203 203 203 197 193 194 195 194 191 189 188 190 193 194 196
285 284 283 281 280 279 278 276 275 273 271 270 267 262 255 248 241 237 232 227 222 219 216 214 212 210 207 203 202 199 185 178 183 187 188 191 191 190 188 189 190 191 194
286 284 282 279 278 276 276 276 275 273 270 268 266 264 259 251 242 236 230 224 220 217 215 213 211 208 205 202 200 189 174 172 174 179 186 187 187 188 186 187 187 190 193
Height
1513 1514 1515 1515 1515 1515 1515 1515 1514 1514 1513 1512 1511 1510 1509 1508 1506 1505 1505 1503 1502 1502 1501 1501 1500 1500 1500 1500 1500 1501 1501 1502 1502 1503 1503 1504 1504 1505 1506 1506 1507 1509 1510
1511 1512 1513 1513 1513 1513 1513 1513 1512 1512 1512 1511 1510 1509 1508 1507 1506 1505 1504 1503 1502 1501 1501 1500 1500 1499 1499 1499 1499 1500 1500 1500 1501 1501 1502 1502 1503 1503 1504 1505 1506 1507 1508
1509 1509 1510 1511 1511 1511 1511 1510 1510 1510 1510 1509 1509 1508 1507 1506 1505 1504 1503 1502 1501 1501 1500 1499 1499 1499 1498 1498 1498 1499 1499 1499 1499 1500 1501 1501 1501 1502 1503 1503 1504 1505 1506
1506 1507 1507 1508 1508 1508 1508 1508 1508 1508 1508 1508 1507 1507 1506 1505 1504 1504 1503 1502 1501 1500 1499 1498 1498 1497 1497 1497 1497 1497 1497 1498 1498 1498 1499 1500 1500 1500 1501 1502 1503 1504 1505
1504 1505 1505 1506 1506 1506 1506 1506 1506 1506 1505 1505 1505 1505 1504 1503 1502 1502 1501 1501 1500 1499 1498 1497 1497 1496 1495 1495 1495 1496 1496 1496 1497 1497 1498 1498 1499 1499 1500 1500 1501 1502 1503
1502 1502 1503 1503 1503 1503 1503 1503 1503 1503 1503 1503 1503 1502 1502 1501 1500 1499 1499 1499 1499 1498 1497 1496 1496 1494 1493 1493 1493 1493 1494 1495 1496 1496 1496 1497 1497 1497 1498 1499 1500 1501 1502
1500 1500 1500 1500 1500 1500 1500 1500 1500 1500 1500 1500 1500 1500 1499 1498 1498 1497 1497 1497 1497 1496 1496 1495 1494 1493 1492 1493 1492 1492 1492 1493 1494 1495 1495 1495 1496 1496 1496 1497 1498 1499 1499
1497 1497 1497 1497 1497 1497 1497 1496 1496 1497 1497 1496 1497 1496 1496 1495 1495 1495 1494 1494 1494 1494 1493 1493 1492 1492 1491 1491 1492 1492 1492 1491 1491 1492 1493 1493 1494 1494 1495 1496 1496 1497 1498
1495 1495 1494 1494 1493 1493 1493 1493 1493 1493 1493 1493 1493 1492 1492 1492 1492 1492 1491 1491 1491 1491 1491 1490 1490 1490 1489 1489 1490 1490 1490 1490 1490 1490 1490 1491 1491 1492 1493 1494 1495 1495 1496
1492 1492 1491 1490 1490 1489 1489 1489 1489 1489 1489 1489 1489 1488 1488 1488 1488 1488 1488 1488 1488 1488 1487 1487 1486 1486 1486 1486 1487 1488 1488 1488 1488 1488 1488 1489 1489 1490 1491 1492 1492 1494 1495
1489 1488 1487 1487 1486 1486 1485 1485 1485 1484 1484 1484 1484 1484 1484 1484 1483 1484 1484 1484 1484 1484 1484 1484 1483 1483 1483 1484 1484 1485 1485 1485 1486 1486 1487 1487 1487 1488 1488 1489 1490 1491 1492
1486 1485 1484 1483 1482 1481 1481 1480 1480 1480 1479 1479 1479 1479 1479 1479 1479 1479 1479 1479 1480 1480 1480 1480 1480 1479 1480 1480 1481 1481 1482 1482 1483 1484 1484 1485 1485 1485 1485 1486 1486 1487 1488
1482 1481 1480 1479 1478 1477 1476 1475 1475 1474 1474 1474 1474 1474 1473 1473 1473 1473 1474 1474 1474 1475 1475 1475 1475 1475 1476 1477 1477 1477 1478 1479 1479 1480 1481 1481 1481 1482 1482 1483 1483 1484 1484
1479 1477 1476 1474 1473 1472 1471 1470 1470 1469 1469 1469 1468 1468 1468 1467 1467 1468 1468 1468 1469 1469 1469 1469 1470 1471 1471 1472 1473 1473 1474 1474 1475 1476 1477 1477 1478 1478 1479 1479 1480 1481 1481
1475 1473 1471 1470 1468 1466 1465 1464 1464 1463 1463 1463 1462 1462 1462 1461 1461 1462 1462 1462 1463 1463 1464 1464 1465 1465 1466 1467 1468 1468 1469 1470 1471 1472 1473 1473 1474 1474 1475 1476 1476 1477 1478
1471 1469 1467 1465 1463 1461 1460 1458 1457 1457 1456 1455 1455 1455 1455 1455 1455 1455 1456 1456 1457 1458 1458 1458 1459 1459 1460 1461 1462 1463 1464 1465 1466 1467 1468 1469 1469 1470 1471 1471 1472 1473 1474
1467 1465 1462 1460 1458 1456 1454 1452 1450 1449 1448 1447 1447 1447 1447 1447 1447 1448 1449 1449 1450 1451 1451 1452 1452 1453 1454 1455 1456 1458 1459 1460 1461 1462 1463 1464 1465 1466 1466 1467 1468 1469 1470
1462 1459 1457 1455 1453 1451 1448 1446 1445 1443 1441 1439 1439 1438 1439 1439 1440 1440 1441 1442 1442 1442 1443 1444 1445 1446 1447 1449 1450 1451 1453 1454 1455 1456 1458 1459 1460 1461 1462 1463 1463 1464 1465
1456 1454 1452 1449 1447 1445 1443 1440 1438 1436 1434 1433 1431 1430 1430 1431 1431 1432 1433 1433 1434 1434 1435 1436 1437 1439 1440 1442 1443 1445 1446 1448 1449 1451 1452 1453 1455 1456 1457 1458 1459 1459 1460
1450 1447 1445 1443 1441 1438 1436 1434 1431 1430 1428 1426 1424 1423 1423 1423 1422 1423 1424 1424 1425 1426 1427 1428 1429 1431 1432 1434 1436 1438 1440 1441 1443 1445 1446 1448 1449 1450 1451 1452 1454 1455 1456
1444 1441 1439 1436 1434 1432 1429 1427 1425 1422 1420 1418 1417 1416 1415 1415 1415 1415 1415 1416 1417 1418 1419 1421 1422 1423 1425 1427 1429 1431 1433 1434 1436 1438 1440 1442 1443 1445 1446 1447 1448 1450 1451
1437 1434 1432 1429 1427 1424 1422 1420 1417 1415 1413 1411 1409 1408 1407 1407 1407 1407 1407 1408 1409 1410 1411 1413 1414 1415 1417 1419 1421 1423 1425 1427 1429 1431 1433 1435 1437 1439 1440 1442 1443 1445 1446
1430 1428 1425 1422 1419 1417 1414 1412 1410 1407 1405 1403 1401 1400 1399 1399 1399 1399 1399 1400 1401 1402 1403 1405 1406 1408 1409 1411 1414 1416 1418 1420 1422 1424 1426 1428 1430 1432 1434 1436 1437 1439 1441
1423 1420 1417 1415 1412 1409 1407 1404 1402 1400 1397 1395 1393 1392 1391 1390 1390 1390 1391 1392 1393 1394 1395 1397 1398 1399 1401 1403 1406 1408 1411 1413 1415 1417 1420 1422 1424 1426 1428 1430 1432 1434 1435
1416 1413 1410 1407 1404 1401 1399 1396 1394 1392 1389 1387 1386 1384 1383 1382 1382 1382 1383 1384 1385 1386 1387 1389 1390 1392 1394 1396 1398 1401 1403 1406 1409 1411 1413 1416 1418 1420 1422 1424 1426 1428 1430
1408 1404 1401 1399 1396 1393 1391 1388 1386 1384 1381 1379 1378 1376 1375 1374 1374 1374 1375 1376 1377 1378 1379 1381 1382 1384 1386 1389 1391 1394 1396 1399 1402 1405 1407 1410 1412 1414 1416 1418 1420 1422 1425